Regional Weather Roundup
Issued by NWS Goodland, KS

Home | Current Version | Previous Version | Graphics & Text | Print | Product List | Glossary On
Versions: 1 2 3 4 5 6 7 8 9 10 11 12 13 14 15 16 17 18 19 20 21 22 23 24 25 26 27 28 29 30 31 32 33 34 35 36 37 38 39 40 41 42 43 44 45 46 47 48 49 50
000
ASUS43 KGLD 280359
RWRGLD

GOODLAND FORECAST AREA HOURLY WEATHER ROUNDUP
NATIONAL WEATHER SERVICE GOODLAND KS
1000 PM MDT SUN MAY 27 2018

...OFFICIAL OBSERVATIONS...

CITY           SKY/WX    TMP DP  RH WIND       PRES   REMARKS
GOODLAND KS    CLOUDY    76  62  62 SE18G26   29.84R
HILL CITY KS   MOCLDY    79  58  48 SE12G21   29.87R
IMPERIAL NEB   TSTM      63  60  90 N16       29.99R
MCCOOK NEB     CLOUDY    71  58  63 N15       29.89S
AKRON CO       CLOUDY    58  56  93 NE20G29   29.94R
BURLINGTON CO  CLOUDY    74  55  51 SE21G33   29.86R
LIMON CO       PTCLDY    68  47  46 SE21G38   29.89R
$$

...UNOFFICIAL OBSERVATIONS...

CITY           SKY/WX    TMP DP  RH WIND       PRES   REMARKS
NORTON KS      CLEAR     79  55  44 SE14G20   29.87
SHARON SPRINGS   N/A     74  59  59 MISG        N/A
KIT CARSON CO    N/A     76  51  40 MISG        N/A
YUMA CO        FAIR      57  46  67 NE15G25   29.92F
$$



USA.gov is the U.S. government's official web portal to all federal, state and local government web resources and services.